OBJECT AK, 61768

Orbit data source: Space-Track

You're viewing an Uncataloged Satellite

Recently launched and/or uncataloged satellites may have evolving metadata. Metadata may include but not limited to: Owner, Maufacturer, Bus, Motor, and Mission.

OBJECT AK, 61768 is a satellite in SSO that was launched on Mon, 04 Nov 2024 UTC launched from the Vostochny Cosmodrome (VOSTO). Unknown objects in Earth's orbit typically refer to objects detected orbiting the Earth but have not yet been identified or cataloged. These objects could be anything from previously untracked satellites, spent rocket stages, debris from satellite collisions, or even natural meteoroids temporarily captured by Earth's gravity.

Loading next visibility...
Identifier
61768, 2024-199AK
Orbit
SSO
Country
Flag of TBDTBD
Related business
Manufacturer
Lavochkin
Mission
Operational spacecraft
Bus & Motor
Unknown
Mass
Unknown
Launch date (UTC)
2024-11-04 (1 year ago)
Launch vehicle
Unknown
Launch site
Vostochny Cosmodrome (VOSTO)
Object type
Unknown
Shape & HBR
Unknown shape, 0.1 m
Radar Cross Section
Small (<0.1 m²)

Expand to show TLE details & history
Last TLE update: 9 hours ago

TLE from 9 hours ago
0 OBJECT AK
1 61768U 24199AK  26061.90376080  .00026917  00000-0  57309-3 0  9993
2 61768  97.3145 295.7217 0005160 332.5728  27.5248 15.44910179117901
Epoch: 2026-03-02T21:41Z
TLE epoch observation values (Epoch: 2026-03-02T21:41:24.933Z)
Latitude
0.00002°
Longitude
169.67732°
Altitude
431.652 km
Speed
7.654 km/s
True Right ascension
19h 42m 53s
True Declination
0° 00' 00"
Sunlit
Object was in daylight at epoch
Visualization orbit readout
Latitude
Unknown
Longitude
Unknown
Altitude
Unknown
Speed
Unknown
Apparent Right ascension
Unknown
Apparent Declination
Unknown
Sunlit
N/A
Visualization observer readout
Local Sidereal Time
10:45:55
Azimuth
Unknown
Elevation
Unknown
Doppler factor
Unknown
Orbital elements
Apogee altitude
432.083 km
Perigee altitude
425.059 km
Semi-major axis
6,806.708 km
Eccentricity
0.00052
Inclination
97.3145°
RAAN
295.7217°
Arg. of periapsis
332.5728°
True anomaly
27.55214°
Mean anomaly
27.5248°
Eccentric anomaly
27.53847°
Mean motion
3.86489 °/min
Orbital period
93.15 mins
BSTAR
0.00057309
Loading maneuver chart data...
Computing Atmospheric mass density...
Loading historical data...
Loading historical data...
Loading historical data...
Loading historical data...
Loading historical data...
Loading historical data...
Loading historical data...

Documentation

Showing up to 5 results
|